Location: Unspecified
(0.0000°N, 0.0000°E)
Time: 06:21:01
(UTC+00:00)

N. Korean satellite - Pass Details

Date: 13 December 2018
Orbit: 456 x 511 km, 97.2° (Epoch: 09 December)

Event Time Altitude Azimuth Distance (km) Brightness Sun altitude
Rises 18:27:28 0° 191° (S) 2,518 10.7 -7.6°
Reaches altitude 10° 18:29:51 10° 207° (SSW) 1,628 10.0 -8.2°
Maximum altitude 18:32:35 22° 259° (WSW) 1,077 9.5 -8.8°
Drops below altitude 10° 18:35:16 10° 310° (NW) 1,603 9.6 -9.4°
Sets 18:37:37 0° 327° (NNW) 2,467 10.3 -9.9°
